{"data":{"norad_id":49295,"intl_designator":"2021-090S","name":"ONEWEB-0369","alt_names":[],"object_type":"PAYLOAD","status":"ACTIVE","operator":null,"country":"UK","launch_date":"2021-10-14","launch_site_code":"VOSTO","launch_vehicle":null,"mission":null,"orbit_class":"UNKNOWN","rcs_meters":null,"size_class":null,"mass_kg":null,"dimensions":null,"purposes":["comms"],"wikipedia_slug":null,"has_3d_model":false,"image_url":null,"decayed_at":null,"tle_current":{"epoch":"2026-05-24T23:34:07.666752Z","epoch_age_seconds":69839,"freshness":"FRESH","line1":"1 49295U 21090S   26144.98203318 -.00000034  00000+0 -11702-3 0  9994","line2":"2 49295  87.9150 309.6008 0001796  91.2836 268.8503 13.19725953223351","mean_motion":13.19725953,"eccentricity":0.0001796,"inclination_deg":87.915,"raan_deg":309.6008,"arg_perigee_deg":91.2836,"mean_anomaly_deg":268.8503,"bstar":-0.00011702,"rev_number":22335,"period_min":109.11356230637,"perigee_km":1184.408433491,"apogee_km":1187.1253877757,"semimajor_km":7563.9039106333,"source":"CELESTRAK","updated_at":"2026-05-25T13:38:22.522744Z"}}}